Waarnemingen

Advertentie
Mijn weer
Kalmar, Zweden (2670): temperatuur & dauwpunt: 22.05.2018 07:00:00 - 28.05.2018 07:00:00 (CEST)Kalmar, Zweden (2670): windsnelheid: 22.05.2018 07:00:00 - 28.05.2018 07:00:00 (CEST)Kalmar, Zweden (2670): windrichting: 22.05.2018 07:00:00 - 28.05.2018 07:00:00 (CEST)Kalmar, Zweden (2670): luchtdruk: 22.05.2018 07:00:00 - 28.05.2018 07:00:00 (CEST)Kalmar, Zweden (2670): zicht: 22.05.2018 07:00:00 - 28.05.2018 07:00:00 (CEST)
Datum & Tijd tt [°C] td [°C] ff [km/u] ff [kn] dd ppp [hPa] vv [km]
28.05.2018 07:00:00 14,5 10,6 9 5 N 1027,7 10
28.05.2018 06:00:00 11,6 9,3 8 4 N 1027,6 10
28.05.2018 05:00:00 9,8 7,9 9 5 N 1027,7 10
28.05.2018 04:00:00 9,8 7,4 9 5 N 1027,8 10
28.05.2018 03:00:00 10,3 7,9 9 5 N 1027,9 10
28.05.2018 02:00:00 10,8 8,2 8 4 NNW 1028,1 10
28.05.2018 01:00:00 11,6 8,3 9 5 NNW 1028,3 10
28.05.2018 00:00:00 12,3 9,1 8 4 N 1028,6 10
27.05.2018 23:00:00 11,1 9,5 8 4 N 1028,5 10
27.05.2018 22:00:00 13,0 10,0 9 5 N 1028,1 10
27.05.2018 21:00:00 14,7 10,3 11 6 N 1027,7 10
27.05.2018 20:00:00 16,2 10,5 16 9 NNO 1027,0 10
27.05.2018 19:00:00 17,2 10,3 18 10 NO 1027,3 10
27.05.2018 18:00:00 16,9 11,8 11 6 NNO 1027,3 10
27.05.2018 17:00:00 16,4 11,3 15 8 NNO 1027,6 10
27.05.2018 16:00:00 15,8 12,0 11 6 NNO 1028,2 10
27.05.2018 15:00:00 15,8 12,0 15 8 NNO 1028,2 10
27.05.2018 14:00:00 16,2 12,0 13 7 NNO 1028,2 10
27.05.2018 13:00:00 15,8 12,0 9 5 NNO 1028,6 10
27.05.2018 12:00:00 15,6 12,4 11 6 NNO 1028,3 10
27.05.2018 11:00:00 15,5 12,6 11 6 NNO 1028,2 10
27.05.2018 10:00:00 15,3 13,1 13 7 NNO 1027,7 10
27.05.2018 09:00:00 16,0 13,1 15 8 NO 1027,1 10
27.05.2018 08:00:00 16,2 13,7 9 5 N 1026,7 10
27.05.2018 07:00:00 14,8 13,8 9 5 N 1026,4 10
27.05.2018 06:00:00 14,4 13,4 5 3 N 1026,4 10
27.05.2018 05:00:00 14,1 13,6 8 4 NNO 1026,2 10
27.05.2018 04:00:00 14,0 13,5 8 4 N 1026,2 7
27.05.2018 03:00:00 13,5 13,0 4 2 N 1026,4 10
27.05.2018 02:00:00 13,2 12,7 5 3 N 1026,7 10
27.05.2018 01:00:00 12,3 12,0 9 5 N 1026,5 10
27.05.2018 00:00:00 11,8 11,5 5 3 NW 1026,6 10
26.05.2018 23:00:00 12,6 11,8 4 2 N 1026,7 10
26.05.2018 22:00:00 13,8 12,4 8 4 N 1026,8 10
26.05.2018 21:00:00 14,7 12,9 8 4 NNO 1026,3 10
26.05.2018 20:00:00 16,0 13,8 9 5 NO 1026,3 10
26.05.2018 19:00:00 16,8 14,3 13 7 NO 1026,5 10
26.05.2018 18:00:00 18,7 14,8 9 5 NNO 1026,2 10
26.05.2018 17:00:00 18,5 13,8 15 8 NNO 1026,1 10
26.05.2018 16:00:00 15,8 14,0 9 5 NO 1026,9 10
26.05.2018 15:00:00 17,8 15,6 13 7 ONO 1027,3 10
26.05.2018 14:00:00 16,7 15,1 9 5 NNO 1027,3 10
26.05.2018 13:00:00 15,7 14,2 4 2 - 1027,3 10
26.05.2018 12:00:00 15,2 13,9 11 6 N 1027,2 10
26.05.2018 11:00:00 15,1 13,8 11 6 N 1027,4 10
26.05.2018 10:00:00 14,5 13,2 9 5 NNW 1027,3 10
26.05.2018 09:00:00 14,4 11,9 16 9 ONO 1027,4 10
26.05.2018 08:00:00 15,0 11,4 9 5 NNO 1026,1 10
26.05.2018 07:00:00 13,9 10,9 9 5 N 1026,2 10
26.05.2018 06:00:00 12,5 10,2 9 5 N 1026,6 10
26.05.2018 05:00:00 12,0 10,2 9 5 N 1026,4 10
26.05.2018 04:00:00 11,8 10,7 9 5 NNW 1026,7 10
26.05.2018 03:00:00 11,6 10,7 4 2 N 1027,2 10
26.05.2018 02:00:00 11,5 10,6 8 4 N 1026,9 10
26.05.2018 01:00:00 11,8 10,7 8 4 N 1027,1 10
26.05.2018 00:00:00 12,6 11,2 8 4 N 1027,1 10
25.05.2018 23:00:00 13,4 11,6 9 5 NNO 1026,9 10
25.05.2018 22:00:00 13,0 11,2 8 4 ONO 1026,9 10
25.05.2018 21:00:00 15,8 11,2 8 4 N 1026,6 10
25.05.2018 20:00:00 17,9 10,0 8 4 NNO 1026,5 10
25.05.2018 19:00:00 19,4 10,9 9 5 NO 1026,6 10
25.05.2018 18:00:00 19,8 11,0 15 8 NO 1026,6 10
25.05.2018 17:00:00 20,7 10,8 16 9 NO 1026,8 10
25.05.2018 16:00:00 20,4 9,9 21 11 NO 1027,1 10
25.05.2018 15:00:00 20,9 10,1 22 12 NO 1027,2 10
25.05.2018 14:00:00 20,3 9,2 18 10 NNO 1027,2 10
25.05.2018 13:00:00 19,9 9,5 21 11 NO 1027,4 10
25.05.2018 12:00:00 19,6 8,3 21 11 NO 1027,6 10
25.05.2018 11:00:00 18,9 7,6 18 10 NNO 1027,6 10
25.05.2018 10:00:00 18,2 5,7 16 9 NNO 1027,6 10
25.05.2018 09:00:00 17,1 7,4 13 7 N 1027,8 10
25.05.2018 08:00:00 14,5 6,6 13 7 N 1028,1 10
25.05.2018 07:00:00 12,4 7,3 8 4 N 1028,1 10
25.05.2018 06:00:00 8,6 6,4 5 3 NNW 1028,2 10
25.05.2018 05:00:00 5,8 4,3 8 4 N 1028,1 10
25.05.2018 04:00:00 6,1 3,3 5 3 N 1028,1 10
25.05.2018 03:00:00 5,9 2,5 5 3 - 1028,2 10
25.05.2018 02:00:00 7,5 3,5 5 3 N 1028,3 10
25.05.2018 01:00:00 8,5 3,5 5 3 N 1028,4 10
25.05.2018 00:00:00 9,0 4,2 5 3 N 1028,6 10
24.05.2018 23:00:00 8,9 6,7 5 3 NNW 1028,8 10
24.05.2018 22:00:00 12,3 7,6 4 2 N 1028,7 10
24.05.2018 21:00:00 14,3 7,8 8 4 N 1028,6 10
24.05.2018 20:00:00 16,1 7,1 8 4 NNO 1028,4 10
24.05.2018 19:00:00 18,0 8,3 11 6 NNO 1028,6 10
24.05.2018 18:00:00 19,5 8,8 11 6 NO 1028,8 10
24.05.2018 17:00:00 19,6 6,7 18 10 NO 1029,1 10
24.05.2018 16:00:00 20,6 3,3 21 11 NO 1029,3 10
24.05.2018 15:00:00 21,0 1,8 16 9 NO 1029,6 10
24.05.2018 14:00:00 20,7 2,5 18 10 NNO 1030,0 10
24.05.2018 13:00:00 20,3 1,7 18 10 NO 1030,5 10
24.05.2018 12:00:00 19,7 -0,5 18 10 NO 1030,9 10
24.05.2018 11:00:00 19,2 -0,8 16 9 NO 1031,0 10
24.05.2018 10:00:00 18,7 2,1 13 7 NNO 1030,6 10
24.05.2018 09:00:00 16,8 6,0 15 8 NNO 1030,5 10
24.05.2018 08:00:00 15,2 9,3 9 5 N 1030,4 10
24.05.2018 07:00:00 12,8 10,3 8 4 NNW 1030,0 10
24.05.2018 06:00:00 10,7 9,8 5 3 N 1029,9 10
24.05.2018 05:00:00 8,1 8,0 5 3 NNW 1029,5 10
24.05.2018 04:00:00 9,2 8,9 5 3 NW 1029,4 10
24.05.2018 03:00:00 10,1 9,8 5 3 NNW 1029,1 10
24.05.2018 02:00:00 10,2 9,6 5 3 N 1028,7 10
24.05.2018 01:00:00 8,9 8,3 2 1 NNW 1028,4 10
24.05.2018 00:00:00 10,3 9,7 0 0 N 1027,8 10
23.05.2018 23:00:00 10,6 9,5 4 2 NNW 1027,5 10
23.05.2018 22:00:00 12,7 11,4 4 2 ZZO 1027,0 10
23.05.2018 21:00:00 16,2 11,6 8 4 ZZO 1026,1 10
23.05.2018 20:00:00 19,1 9,0 8 4 Z 1025,7 10
23.05.2018 19:00:00 20,1 8,1 16 9 Z 1025,6 10
23.05.2018 18:00:00 20,8 8,4 15 8 Z 1025,3 10
23.05.2018 17:00:00 22,5 7,9 13 7 Z 1025,3 10
23.05.2018 16:00:00 22,9 7,4 11 6 Z 1025,1 10
23.05.2018 15:00:00 22,6 8,3 13 7 Z 1024,9 10
23.05.2018 14:00:00 22,4 10,2 16 9 ZZO 1025,0 10
23.05.2018 13:00:00 22,3 4,4 9 5 Z 1024,6 10
23.05.2018 12:00:00 21,9 9,4 8 4 Z 1024,3 10
23.05.2018 11:00:00 19,8 10,2 8 4 Z 1023,9 10
23.05.2018 10:00:00 18,7 10,5 4 2 ZZO 1023,4 10
23.05.2018 09:00:00 17,9 8,7 4 2 - 1022,9 10
23.05.2018 08:00:00 15,3 9,4 4 2 - 1022,2 10
23.05.2018 07:00:00 12,6 8,5 4 2 OZO 1021,6 10
23.05.2018 06:00:00 8,5 7,3 0 0 N 1021,2 10
23.05.2018 05:00:00 6,3 5,9 5 3 ZZO 1020,7 10
23.05.2018 04:00:00 6,9 6,5 4 2 Z 1020,3 10
23.05.2018 03:00:00 6,5 6,4 2 1 NNW 1020,0 10
23.05.2018 02:00:00 7,9 7,6 2 1 WZW 1020,0 10
23.05.2018 01:00:00 9,3 8,1 4 2 WZW 1019,9 10
23.05.2018 00:00:00 9,8 8,2 4 2 ZZW 1019,8 10
22.05.2018 23:00:00 13,0 9,8 9 5 ZW 1019,6 10
22.05.2018 22:00:00 12,5 8,4 9 5 ZO 1019,2 10
22.05.2018 21:00:00 13,9 8,5 9 5 ZZO 1018,9 10
22.05.2018 20:00:00 17,4 8,8 13 7 ZO 1018,6 10
22.05.2018 19:00:00 18,3 7,4 13 7 Z 1018,3 10
22.05.2018 18:00:00 20,0 7,0 9 5 Z 1018,3 10
22.05.2018 17:00:00 20,3 6,6 11 6 Z 1018,5 10
22.05.2018 16:00:00 20,3 5,9 13 7 Z 1018,7 10
22.05.2018 15:00:00 19,7 7,1 8 4 Z 1019,1 10
22.05.2018 14:00:00 19,6 5,3 11 6 Z 1019,4 10
22.05.2018 13:00:00 19,9 7,6 11 6 Z 1019,5 10
22.05.2018 12:00:00 19,2 10,7 13 7 OZO 1019,8 10
22.05.2018 11:00:00 19,4 10,7 11 6 ONO 1020,0 10
22.05.2018 10:00:00 18,5 10,6 9 5 NO 1020,2 10
22.05.2018 09:00:00 16,8 10,4 11 6 NO 1020,4 10
22.05.2018 08:00:00 15,0 10,4 9 5 N 1020,6 10
22.05.2018 07:00:00 12,3 8,8 5 3 N 1020,9 10

tt = temperatuur
td = dauwpunt
ff = windsnelheid
dd = windrichting
ppp = luchtdruk
vv = zicht

Weerstations in de omgeving